Location: Poughquag
(41.6090°N, 73.6820°W)
Time: 11:02:54
(UTC-04:00)

N. Korean satellite - Visible Passes

Search period start: 21 September 2019 00:00
Search period end: 01 October 2019 00:00
Orbit: 455 x 509 km, 97.2° (Epoch: 21 September)

Date Brightness Start Highest point End Pass type
(mag) Time Alt. Az. Time Alt. Az. Time Alt. Az.
23 Sep 9.7 06:02:42 10° NE 06:05:01 17° E 06:07:20 10° SE visible
27 Sep 10.0 05:55:33 10° ENE 05:57:25 14° E 05:59:18 10° SE visible
28 Sep 10.5 19:13:38 10° WSW 19:14:50 11° W 19:16:02 10° WNW visible
30 Sep 9.4 06:12:22 10° NE 06:15:12 23° E 06:18:03 10° SSE visible
